#�ϑ�����,���ϕ���,���ϕ���,�ő啗��,�ő啗����������,�ő�u�ԕ���,�ő�u�ԕ�����������
#(�N����),(m/s)   ,(16����),(m/s)   ,(16����)        ,(m/s)       ,(16����)            
2014/1/22 0:01,1.2,9,1.2,10,2.9,8
2014/1/22 0:02,1.3,9,1.3,10,3.5,7
2014/1/22 0:03,1.5,8,1.5,9,5.2,8
2014/1/22 0:04,1.5,8,1.6,8,2.7,9
2014/1/22 0:05,1.3,8,1.5,8,1.8,8
2014/1/22 0:06,1.3,8,1.3,8,3.6,9
2014/1/22 0:07,1.6,8,1.6,8,3.9,10
2014/1/22 0:08,1.7,8,1.7,8,2.9,9
2014/1/22 0:09,1.8,9,1.8,9,2.2,10
2014/1/22 0:10,1.9,9,1.9,9,2.9,10
2014/1/22 0:11,2,9,2,9,2.9,10
2014/1/22 0:12,2,10,2,9,2.9,11
2014/1/22 0:13,1.9,10,2,9,4.3,10
2014/1/22 0:14,2,10,2,9,3.9,10
2014/1/22 0:15,2.2,10,2.2,10,4.1,9
2014/1/22 0:16,2.2,10,2.3,10,4.5,9
2014/1/22 0:17,2.1,10,2.2,10,3.9,9
2014/1/22 0:18,2.3,10,2.3,10,3.9,9
2014/1/22 0:19,2.4,10,2.4,10,3,9
2014/1/22 0:20,2.5,10,2.5,10,4.7,9
2014/1/22 0:21,2.5,10,2.5,10,4.7,9
2014/1/22 0:22,2.6,10,2.6,10,4.1,9
2014/1/22 0:23,2.5,10,2.6,10,3.2,9
2014/1/22 0:24,2.4,10,2.5,10,2.7,10
2014/1/22 0:25,2.3,10,2.4,10,3,9
2014/1/22 0:26,2.3,10,2.3,10,2.7,8
2014/1/22 0:27,2.2,10,2.2,10,2.5,9
2014/1/22 0:28,1.9,10,2.1,10,1,7
2014/1/22 0:29,1.7,10,1.9,10,0.9,8
2014/1/22 0:30,1.7,9,1.8,10,4.3,8
2014/1/22 0:31,1.7,9,1.8,10,3.8,8
2014/1/22 0:32,1.7,9,1.7,10,2.9,9
2014/1/22 0:33,1.6,9,1.7,10,2.6,9
2014/1/22 0:34,1.5,9,1.6,10,2.5,9
2014/1/22 0:35,1.4,9,1.5,10,1.9,9
2014/1/22 0:36,1.3,9,1.4,10,0.4,9
2014/1/22 0:37,1.1,9,1.3,10,0,7
2014/1/22 0:38,1.1,9,1.1,10,0,10
2014/1/22 0:39,1.1,9,1.1,9,0,8
2014/1/22 0:40,0.8,9,1.1,9,0,7
2014/1/22 0:41,0.6,9,0.8,9,0,8
2014/1/22 0:42,0.3,9,0.5,9,0,10
2014/1/22 0:43,0.2,9,0.3,9,0,9
2014/1/22 0:44,0.1,9,0.2,9,0,9
2014/1/22 0:45,0,9,0.1,9,0,9
2014/1/22 0:46,0,9,0,9,0,10
2014/1/22 0:47,0,9,0,8,0,11
2014/1/22 0:48,0,9,0,9,0,10
2014/1/22 0:49,0,9,0,9,0,10
2014/1/22 0:50,0,10,0,9,0,9
2014/1/22 0:51,0,10,0,9,0,9
2014/1/22 0:52,0,10,0,9,0,8
2014/1/22 0:53,0,10,0,9,0,9
2014/1/22 0:54,0,10,0,9,0,8
2014/1/22 0:55,0,10,0,9,0,11
2014/1/22 0:56,0,10,0,9,0,10
2014/1/22 0:57,0,9,0,9,0,9
2014/1/22 0:58,0,9,0,9,0,8
2014/1/22 0:59,0,9,0,10,0,9
2014/1/22 1:00,0,9,0,10,0,8
2014/1/22 1:01,0,9,0,10,0,9
2014/1/22 1:02,0,9,0,10,0,9
2014/1/22 1:03,0,9,0,10,0,10
2014/1/22 1:04,0,9,0,10,0,9
2014/1/22 1:05,0,9,0,10,0,10
2014/1/22 1:06,0,10,0,10,0,10
2014/1/22 1:07,0,10,0,9,0,10
2014/1/22 1:08,0,10,0,9,0,9
2014/1/22 1:09,0,10,0,9,0,9
2014/1/22 1:10,0,10,0,9,0,9
2014/1/22 1:11,0,10,0,9,0,9
2014/1/22 1:12,0,9,0,9,0,8
2014/1/22 1:13,0,9,0,9,0,8
2014/1/22 1:14,0,9,0,9,0,9
2014/1/22 1:15,0,9,0,9,0,7
2014/1/22 1:16,0,9,0,10,0,10
2014/1/22 1:17,0,9,0,10,0,8
2014/1/22 1:18,0,9,0,10,0,9
2014/1/22 1:19,0,9,0,10,0,10
2014/1/22 1:20,0,9,0,10,0,10
2014/1/22 1:21,0,9,0,10,0,10
2014/1/22 1:22,0,9,0,9,0,9
2014/1/22 1:23,0,9,0,9,0,8
2014/1/22 1:24,0,9,0,9,0,9
2014/1/22 1:25,0,9,0,9,0,10
2014/1/22 1:26,0,9,0,9,0,9
2014/1/22 1:27,0,9,0,9,0,9
2014/1/22 1:28,0,9,0,9,0,7
2014/1/22 1:29,0,9,0,9,0,10
2014/1/22 1:30,0,9,0,9,0,10
2014/1/22 1:31,0,10,0,9,0,11
2014/1/22 1:32,0,10,0,9,0,9
2014/1/22 1:33,0,10,0,9,0,9
2014/1/22 1:34,0,10,0,9,0,10
2014/1/22 1:35,0,10,0,9,0,12
2014/1/22 1:36,0,10,0,9,0,4
2014/1/22 1:37,0,10,0,9,0,3
2014/1/22 1:38,0,10,0,9,0,13
2014/1/22 1:39,0,10,0,9,0,8
2014/1/22 1:40,0,10,0,9,0,13
2014/1/22 1:41,0,10,0,10,0,8
2014/1/22 1:42,0,10,0,10,0,14
2014/1/22 1:43,0,10,0,10,0,10
2014/1/22 1:44,0,10,0,10,0,9
2014/1/22 1:45,0,10,0,10,0,12
2014/1/22 1:46,0,11,0,10,0,3
2014/1/22 1:47,0,11,0,10,0,14
2014/1/22 1:48,0,10,0,10,0,13
2014/1/22 1:49,0,10,0,10,0.3,15
2014/1/22 1:50,0,11,0,10,0,1
2014/1/22 1:51,0,11,0,10,0,1
2014/1/22 1:52,0,10,0,10,0,6
2014/1/22 1:53,0,7,0,10,0,6
2014/1/22 1:54,0,6,0,10,0,6
2014/1/22 1:55,0,6,0,10,0,6
2014/1/22 1:56,0,6,0,11,0,7
2014/1/22 1:57,0,6,0,11,0,12
2014/1/22 1:58,0,6,0,10,0,9
2014/1/22 1:59,0,6,0,10,0,6
2014/1/22 2:00,0,6,0,11,0,13
2014/1/22 2:01,0,7,0,11,0,14
2014/1/22 2:02,0,9,0,9,0,15
2014/1/22 2:03,0,10,0,7,0,12
2014/1/22 2:04,0.1,11,0.1,11,2.2,10
2014/1/22 2:05,0.1,12,0.1,11,0.3,9
2014/1/22 2:06,0.1,13,0.1,11,0.3,16
2014/1/22 2:07,0.1,13,0.1,11,0.1,15
2014/1/22 2:08,0.1,14,0.1,11,0.3,2
2014/1/22 2:09,0.1,14,0.1,11,0.3,13
2014/1/22 2:10,0.1,14,0.1,11,0.1,15
2014/1/22 2:11,0.1,15,0.1,11,0.1,4
2014/1/22 2:12,0.1,15,0.1,11,0.1,14
2014/1/22 2:13,0.1,16,0.1,11,0.1,3
2014/1/22 2:14,0,1,0.1,11,0.1,5
2014/1/22 2:15,0,1,0,12,0.1,7
2014/1/22 2:16,0,2,0,13,0.1,5
2014/1/22 2:17,0,2,0,13,0.1,15
2014/1/22 2:18,0,2,0,14,0.3,16
2014/1/22 2:19,0,2,0,14,0.3,1
2014/1/22 2:20,0,2,0,14,0.4,1
2014/1/22 2:21,0,1,0,15,0.3,16
2014/1/22 2:22,0,1,0,15,0.3,14
2014/1/22 2:23,0,1,0,16,0.3,1
2014/1/22 2:24,0,16,0,1,0.1,15
2014/1/22 2:25,0,16,0,1,0.3,16
2014/1/22 2:26,0,16,0,2,0.1,1
2014/1/22 2:27,0,1,0,2,0.1,3
2014/1/22 2:28,0,1,0,2,0.1,2
2014/1/22 2:29,0,1,0,2,0.3,2
2014/1/22 2:30,0,1,0,2,0.1,3
2014/1/22 2:31,0,1,0,1,0.1,15
2014/1/22 2:32,0,1,0,1,0.1,3
2014/1/22 2:33,0,1,0,1,0.1,2
2014/1/22 2:34,0,2,0,16,0.5,5
2014/1/22 2:35,0,2,0,16,0.4,5
2014/1/22 2:36,0,2,0,16,0.3,5
2014/1/22 2:37,0,2,0,1,0.3,15
2014/1/22 2:38,0,1,0,1,0.3,12
2014/1/22 2:39,0,15,0,1,0.1,12
2014/1/22 2:40,0,12,0,1,0.3,8
2014/1/22 2:41,0,10,0,1,0.3,7
2014/1/22 2:42,0,10,0,1,0.3,7
2014/1/22 2:43,0.1,9,0.1,9,0.4,2
2014/1/22 2:44,0.1,9,0.1,9,0.1,5
2014/1/22 2:45,0,9,0.1,9,0.3,5
2014/1/22 2:46,0,10,0,9,0.3,16
2014/1/22 2:47,0,9,0,9,0.1,15
2014/1/22 2:48,0,8,0,9,0.3,3
2014/1/22 2:49,0.1,3,0.1,9,1.5,16
2014/1/22 2:50,0.2,1,0.2,1,1.9,15
2014/1/22 2:51,0.3,1,0.3,1,2,15
2014/1/22 2:52,0.5,1,0.5,1,2.6,3
2014/1/22 2:53,0.5,16,0.5,1,0.6,1
2014/1/22 2:54,0.6,16,0.6,16,3.3,16
2014/1/22 2:55,0.6,16,0.6,16,1.5,16
2014/1/22 2:56,0.6,16,0.6,16,0.4,15
2014/1/22 2:57,0.6,16,0.6,16,0.5,16
2014/1/22 2:58,0.7,16,0.7,16,2.4,14
2014/1/22 2:59,0.8,16,0.8,16,2.6,2
2014/1/22 3:00,0.9,16,0.9,16,3.9,16
2014/1/22 3:01,1,16,1,16,3,16
2014/1/22 3:02,1,16,1,16,5.5,15
2014/1/22 3:03,1.2,16,1.2,16,2.5,15
2014/1/22 3:04,1.3,16,1.3,16,3.5,16
2014/1/22 3:05,1.6,16,1.6,16,4.4,16
2014/1/22 3:06,2,16,2,16,6.3,15
2014/1/22 3:07,2.4,16,2.4,16,6.5,16
2014/1/22 3:08,2.9,16,2.9,16,9.5,15
2014/1/22 3:09,3.5,16,3.5,16,12.7,1
2014/1/22 3:10,4,16,4,16,12.6,15
2014/1/22 3:11,4.3,16,4.3,16,7,15
2014/1/22 3:12,4.7,16,4.7,16,9.2,16
2014/1/22 3:13,5.1,16,5.1,16,9.5,15
2014/1/22 3:14,5.3,16,5.3,16,9.2,15
2014/1/22 3:15,5.6,16,5.6,16,10.1,16
2014/1/22 3:16,5.8,16,5.8,16,8.5,16
2014/1/22 3:17,6,16,6,16,11.4,16
2014/1/22 3:18,5.9,16,6,16,10.2,1
2014/1/22 3:19,5.6,16,5.9,16,10.3,15
2014/1/22 3:20,5.4,16,5.6,16,9.2,16
2014/1/22 3:21,5.3,16,5.4,16,7.2,1
2014/1/22 3:22,5.3,16,5.4,16,9.8,16
2014/1/22 3:23,5.2,16,5.3,16,8.7,16
2014/1/22 3:24,5.1,16,5.2,16,9.2,15
2014/1/22 3:25,5.2,16,5.2,16,14.3,15
2014/1/22 3:26,5.4,16,5.4,16,12.4,16
2014/1/22 3:27,5.4,16,5.6,16,10.7,16
2014/1/22 3:28,5.3,16,5.4,16,8.9,15
2014/1/22 3:29,5.1,16,5.3,16,11.6,15
2014/1/22 3:30,5.3,16,5.3,16,12.1,16
2014/1/22 3:31,5.4,16,5.5,16,7,1
2014/1/22 3:32,5.5,16,5.5,16,10.3,1
2014/1/22 3:33,5.4,16,5.6,16,9.2,16
2014/1/22 3:34,5.5,16,5.5,16,8.9,1
2014/1/22 3:35,5.7,16,5.8,16,13.9,15
2014/1/22 3:36,5.8,16,5.8,16,13.9,16
2014/1/22 3:37,5.5,16,5.8,16,7,16
2014/1/22 3:38,5.8,16,5.8,16,12.1,15
2014/1/22 3:39,6.2,16,6.2,16,11.8,16
2014/1/22 3:40,6,16,6.2,16,10.6,16
2014/1/22 3:41,6.2,16,6.2,16,9.4,14
2014/1/22 3:42,6.3,16,6.3,16,9.3,15
2014/1/22 3:43,6.9,16,6.9,16,16.2,14
2014/1/22 3:44,7.2,16,7.2,16,12.6,16
2014/1/22 3:45,7,15,7.2,16,9.8,16
2014/1/22 3:46,6.5,15,7,16,10.5,16
2014/1/22 3:47,6.5,16,6.5,16,7.5,16
2014/1/22 3:48,6.3,16,6.5,16,7.2,3
2014/1/22 3:49,6,16,6.2,16,7.5,16
2014/1/22 3:50,5.8,16,6,16,6.9,15
2014/1/22 3:51,5.6,16,5.7,16,7.5,15
2014/1/22 3:52,5.4,16,5.6,16,10.1,16
2014/1/22 3:53,4.9,16,5.4,16,8.9,16
2014/1/22 3:54,4.9,16,4.9,16,9.3,15
2014/1/22 3:55,4.8,16,4.9,15,12.4,15
2014/1/22 3:56,5,16,5,16,8.3,15
2014/1/22 3:57,5.2,16,5.2,16,11,16
2014/1/22 3:58,5.4,16,5.4,16,8.7,15
2014/1/22 3:59,5.7,15,5.7,16,11,15
2014/1/22 4:00,5.9,15,5.9,15,11.3,16
2014/1/22 4:01,6.1,15,6.1,15,9.1,15
2014/1/22 4:02,6.2,15,6.3,15,10.9,16
2014/1/22 4:03,6.2,15,6.2,15,9.9,15
2014/1/22 4:04,6.2,16,6.2,15,11.6,1
2014/1/22 4:05,6.1,16,6.3,15,9.7,16
2014/1/22 4:06,6,16,6.1,15,7.5,15
2014/1/22 4:07,5.9,16,6,15,10,16
2014/1/22 4:08,5.9,16,6,15,7.6,16
2014/1/22 4:09,5.6,16,5.9,15,8.9,1
2014/1/22 4:10,5.6,16,5.7,15,12.1,16
2014/1/22 4:11,5.5,16,5.7,15,8.7,15
2014/1/22 4:12,5.3,15,5.5,16,7.7,16
2014/1/22 4:13,5.3,15,5.4,16,9.1,16
2014/1/22 4:14,5,15,5.3,16,5.4,2
2014/1/22 4:15,4.8,15,5,16,5.8,15
2014/1/22 4:16,4.9,15,4.9,16,9.4,15
2014/1/22 4:17,4.8,15,4.9,16,8.1,16
2014/1/22 4:18,4.5,16,4.7,16,5.8,16
2014/1/22 4:19,4.3,16,4.5,16,4.7,15
2014/1/22 4:20,3.9,16,4.3,16,4.1,1
2014/1/22 4:21,3.8,16,3.9,16,6.3,16
2014/1/22 4:22,3.8,16,3.8,15,7.1,16
2014/1/22 4:23,3.7,15,3.7,15,10.6,15
2014/1/22 4:24,3.9,15,3.9,15,9.3,15
2014/1/22 4:25,4.2,15,4.2,15,10.2,16
2014/1/22 4:26,4.1,16,4.2,15,10.5,16
2014/1/22 4:27,4.1,16,4.2,16,9.4,15
2014/1/22 4:28,4.6,16,4.6,16,10.8,16
2014/1/22 4:29,4.8,16,4.8,16,9.3,15
2014/1/22 4:30,5.2,16,5.2,16,8.1,16
2014/1/22 4:31,5.5,16,5.5,16,11.4,15
2014/1/22 4:32,5.5,16,5.6,16,9.4,15
2014/1/22 4:33,5.7,16,5.8,16,11.4,15
2014/1/22 4:34,5.6,16,5.8,16,8.1,16
2014/1/22 4:35,5.4,16,5.7,16,6.9,16
2014/1/22 4:36,5.3,16,5.4,16,6.7,15
2014/1/22 4:37,5.2,16,5.3,16,7.7,1
2014/1/22 4:38,5,16,5.2,16,7.7,15
2014/1/22 4:39,4.9,16,5,16,8.2,15
2014/1/22 4:40,4.9,15,5,16,8.7,16
2014/1/22 4:41,4.6,15,4.9,16,5.1,14
2014/1/22 4:42,4.6,15,4.6,16,8.1,16
2014/1/22 4:43,4.4,15,4.6,16,9.5,15
2014/1/22 4:44,4.5,15,4.5,16,9.8,15
2014/1/22 4:45,4.4,15,4.4,16,6.5,1
2014/1/22 4:46,4.6,15,4.6,16,9.3,16
2014/1/22 4:47,4.7,15,4.7,16,7.8,15
2014/1/22 4:48,4.8,15,4.8,16,7.9,16
2014/1/22 4:49,4.6,16,4.8,15,7.6,14
2014/1/22 4:50,4.6,16,4.6,15,9.9,15
2014/1/22 4:51,5,16,5,16,10.1,15
2014/1/22 4:52,4.8,16,5,16,8.1,1
2014/1/22 4:53,4.9,16,4.9,16,7,1
2014/1/22 4:54,4.6,16,4.8,16,4.5,15
2014/1/22 4:55,4.5,16,4.7,16,5.5,16
2014/1/22 4:56,4.5,16,4.6,16,9.5,16
2014/1/22 4:57,4.5,16,4.6,16,8.6,16
2014/1/22 4:58,4.3,16,4.4,16,6.3,15
2014/1/22 4:59,4.5,15,4.5,16,11.7,15
2014/1/22 5:00,4.6,15,4.6,16,13,15
2014/1/22 5:01,4.6,15,4.7,16,12.8,16
2014/1/22 5:02,4.8,15,4.8,16,11.5,15
2014/1/22 5:03,4.8,15,4.8,16,10.9,16
2014/1/22 5:04,5.4,16,5.4,16,13.2,1
2014/1/22 5:05,6.1,16,6.1,16,13.6,16
2014/1/22 5:06,6.3,16,6.3,16,12.2,16
2014/1/22 5:07,6.3,16,6.3,16,11.7,16
2014/1/22 5:08,6.5,16,6.5,16,10.5,16
2014/1/22 5:09,6.5,16,6.5,16,9,16
2014/1/22 5:10,6.5,16,6.6,16,11.5,16
2014/1/22 5:11,6.7,16,6.7,16,14.1,16
2014/1/22 5:12,6.9,16,6.9,16,12.3,16
2014/1/22 5:13,7.1,16,7.1,16,11.9,15
2014/1/22 5:14,7,16,7.2,16,11.7,16
2014/1/22 5:15,6.6,16,6.9,16,7.4,15
2014/1/22 5:16,6.4,16,6.6,16,11.3,16
2014/1/22 5:17,6.5,16,6.5,16,10.5,15
2014/1/22 5:18,6.4,16,6.5,16,9.2,2
2014/1/22 5:19,6.6,16,6.6,16,10.7,15
2014/1/22 5:20,6.6,16,6.6,16,14.3,15
2014/1/22 5:21,6.5,16,6.6,16,11.7,16
2014/1/22 5:22,6.1,16,6.3,16,9.2,15
2014/1/22 5:23,5.8,16,6.1,16,8.7,16
2014/1/22 5:24,5.8,16,5.8,16,10.3,16
2014/1/22 5:25,5.7,16,5.8,16,9.3,15
2014/1/22 5:26,5.6,16,5.7,16,8.3,16
2014/1/22 5:27,5.7,16,5.7,16,11.3,16
2014/1/22 5:28,5.9,16,5.9,16,9.5,15
2014/1/22 5:29,5.5,16,5.8,16,6.3,16
2014/1/22 5:30,5.2,16,5.5,16,7.7,1
2014/1/22 5:31,5.1,16,5.2,16,10.3,15
2014/1/22 5:32,5.4,16,5.4,16,12.6,15
2014/1/22 5:33,5.5,16,5.5,16,10.7,15
2014/1/22 5:34,5.7,16,5.7,16,10.9,16
2014/1/22 5:35,5.8,16,5.9,16,10.5,14
2014/1/22 5:36,5.9,16,5.9,16,9.7,15
2014/1/22 5:37,6,16,6,16,12.2,14
2014/1/22 5:38,6.2,16,6.2,16,12.4,15
2014/1/22 5:39,6.7,16,6.7,16,14.5,15
2014/1/22 5:40,7,16,7,16,11.6,16
2014/1/22 5:41,7,16,7.2,16,9.9,1
2014/1/22 5:42,6.9,16,6.9,16,12.8,16
2014/1/22 5:43,7,16,7,16,15.1,16
2014/1/22 5:44,7.1,16,7.2,16,16.3,16
2014/1/22 5:45,7,16,7,16,9.2,16
2014/1/22 5:46,7,16,7.1,16,7.8,14
2014/1/22 5:47,6.9,16,7,16,15.8,16
2014/1/22 5:48,6.9,16,6.9,16,16.8,15
2014/1/22 5:49,7,16,7,16,14.4,15
2014/1/22 5:50,7.1,16,7.1,16,14.9,16
2014/1/22 5:51,7.2,16,7.2,16,12.1,14
2014/1/22 5:52,7,16,7.2,16,12.1,16
2014/1/22 5:53,6.9,15,7.1,16,10.8,14
2014/1/22 5:54,6.7,15,6.8,16,10.1,14
2014/1/22 5:55,6.6,16,6.7,16,9.9,16
2014/1/22 5:56,6.8,16,6.8,16,10.8,15
2014/1/22 5:57,6.8,16,6.9,16,11.3,1
2014/1/22 5:58,6.8,16,6.9,16,10.8,16
2014/1/22 5:59,6.5,16,6.8,16,12.7,15
2014/1/22 6:00,6.5,16,6.6,16,13.9,16
2014/1/22 6:01,6.5,16,6.6,16,12.2,16
2014/1/22 6:02,6.5,16,6.5,16,10,16
2014/1/22 6:03,6.3,16,6.5,16,10.7,15
2014/1/22 6:04,6.4,16,6.4,16,12.5,16
2014/1/22 6:05,6.4,16,6.4,16,12.2,15
2014/1/22 6:06,6.4,16,6.6,16,13.4,15
2014/1/22 6:07,6.2,16,6.4,16,10.7,15
2014/1/22 6:08,6.2,16,6.4,16,10.9,1
2014/1/22 6:09,6.2,16,6.4,16,11.8,15
2014/1/22 6:10,5.9,16,6.2,16,10.1,16
2014/1/22 6:11,5.8,16,5.8,16,10.5,1
2014/1/22 6:12,5.9,16,5.9,16,10.1,16
2014/1/22 6:13,5.9,16,5.9,16,8.5,16
2014/1/22 6:14,5.8,16,5.9,16,9.1,16
2014/1/22 6:15,5.8,16,5.8,16,8.4,16
2014/1/22 6:16,5.6,16,5.8,16,9.9,2
2014/1/22 6:17,5.9,16,5.9,16,12.8,15
2014/1/22 6:18,5.9,16,5.9,16,10.3,14
2014/1/22 6:19,5.9,16,6.1,16,11.5,15
2014/1/22 6:20,6.2,16,6.2,16,13.3,15
2014/1/22 6:21,6,16,6.2,16,8.2,16
2014/1/22 6:22,6,16,6,16,7.7,16
2014/1/22 6:23,6,16,6.1,16,9.8,16
2014/1/22 6:24,6.2,16,6.2,16,8.9,16
2014/1/22 6:25,6.1,16,6.1,16,8.6,2
2014/1/22 6:26,6.4,16,6.4,16,12.5,16
2014/1/22 6:27,6.2,16,6.4,16,11.1,14
2014/1/22 6:28,6.1,16,6.2,16,9.9,16
2014/1/22 6:29,6.1,16,6.1,16,10.1,16
2014/1/22 6:30,5.7,16,6.1,16,9.8,15
2014/1/22 6:31,5.9,16,5.9,16,11.5,15
2014/1/22 6:32,6.1,16,6.1,16,12.4,16
2014/1/22 6:33,6.1,16,6.2,16,10.8,16
2014/1/22 6:34,5.8,16,6,16,7,1
2014/1/22 6:35,5.9,16,5.9,16,8.6,16
2014/1/22 6:36,5.9,16,5.9,16,13,16
2014/1/22 6:37,5.9,16,5.9,16,9,15
2014/1/22 6:38,5.8,16,5.9,16,8.6,14
2014/1/22 6:39,5.8,16,5.8,16,11.7,15
2014/1/22 6:40,6.1,16,6.1,16,11.6,15
2014/1/22 6:41,6,16,6.1,16,9.1,15
2014/1/22 6:42,5.8,16,6,16,8.3,13
2014/1/22 6:43,5.9,16,5.9,16,9.5,14
2014/1/22 6:44,6.1,16,6.1,16,7.9,16
2014/1/22 6:45,6.1,15,6.1,16,9.2,16
2014/1/22 6:46,6,15,6.2,15,8.9,16
2014/1/22 6:47,6,15,6,15,10.7,15
2014/1/22 6:48,6.1,15,6.1,15,9.9,15
2014/1/22 6:49,6,15,6.1,15,9.4,15
2014/1/22 6:50,5.7,15,6,15,13,16
2014/1/22 6:51,5.6,16,5.7,15,8.6,16
2014/1/22 6:52,5.6,16,5.6,15,8.2,15
2014/1/22 6:53,5.4,16,5.5,15,14.1,15
2014/1/22 6:54,5.9,16,5.9,15,15.1,16
2014/1/22 6:55,6,16,6,15,13,15
2014/1/22 6:56,6.2,16,6.2,16,13.1,16
2014/1/22 6:57,6.1,16,6.2,16,8.7,15
2014/1/22 6:58,6.1,16,6.1,16,10.3,15
2014/1/22 6:59,6.3,16,6.3,16,12.1,16
2014/1/22 7:00,6.4,15,6.4,15,10.1,15
2014/1/22 7:01,6.9,15,6.9,15,17.5,15
2014/1/22 7:02,7.3,15,7.3,15,12.8,14
2014/1/22 7:03,7.5,15,7.5,15,14,15
2014/1/22 7:04,7.2,15,7.4,15,11.3,15
2014/1/22 7:05,7.3,15,7.3,15,12.8,15
2014/1/22 7:06,6.7,15,7.2,15,6.1,15
2014/1/22 7:07,6.5,15,6.6,15,10.1,15
2014/1/22 7:08,6.5,15,6.6,15,11.1,15
2014/1/22 7:09,6.4,16,6.5,15,9.7,1
2014/1/22 7:10,6.5,16,6.5,15,13.6,16
2014/1/22 7:11,6.3,16,6.5,15,13.9,16
2014/1/22 7:12,6.1,16,6.3,15,9.7,15
2014/1/22 7:13,5.9,16,6,15,9.1,14
2014/1/22 7:14,5.6,16,5.8,15,9.5,1
2014/1/22 7:15,5.4,16,5.6,15,12.8,16
2014/1/22 7:16,5.9,16,5.9,15,12.5,1
2014/1/22 7:17,6.1,16,6.2,15,10.3,1
2014/1/22 7:18,6.3,16,6.3,15,13.6,15
2014/1/22 7:19,6.2,15,6.3,16,10.1,15
2014/1/22 7:20,6.1,15,6.3,16,10.9,16
2014/1/22 7:21,6.1,15,6.2,16,11.4,16
2014/1/22 7:22,6.3,15,6.3,16,13.2,14
2014/1/22 7:23,6.5,15,6.5,15,11.8,15
2014/1/22 7:24,6.8,15,6.8,15,12.1,15
2014/1/22 7:25,6.7,15,6.7,15,10.6,15
2014/1/22 7:26,6.4,16,6.7,15,9.7,16
2014/1/22 7:27,6.6,16,6.6,15,11.8,16
2014/1/22 7:28,6.5,16,6.6,15,11,16
2014/1/22 7:29,6.5,16,6.6,15,8.6,16
2014/1/22 7:30,6.6,16,6.7,15,11.6,1
2014/1/22 7:31,6.4,16,6.5,15,8.7,15
2014/1/22 7:32,6.2,16,6.4,15,10.9,16
2014/1/22 7:33,5.9,16,6.2,15,7.5,16
2014/1/22 7:34,5.6,16,5.9,15,6.4,16
2014/1/22 7:35,5.7,16,5.7,15,9.3,15
2014/1/22 7:36,5.8,15,5.8,16,9.9,15
2014/1/22 7:37,5.6,16,5.8,16,9.2,15
2014/1/22 7:38,5.2,15,5.6,16,4.2,3
2014/1/22 7:39,5.1,16,5.2,16,6.9,16
2014/1/22 7:40,4.8,15,5,16,8.1,15
2014/1/22 7:41,4.8,15,4.8,16,7.6,1
2014/1/22 7:42,4.4,15,4.7,16,5,16
2014/1/22 7:43,4.1,15,4.4,16,3.7,12
2014/1/22 7:44,3.8,15,4.1,16,1.9,15
2014/1/22 7:45,3.5,15,3.8,16,5.1,11
2014/1/22 7:46,3.2,15,3.5,15,5.8,15
2014/1/22 7:47,2.9,15,3.1,16,6.4,15
2014/1/22 7:48,2.7,14,2.9,15,1.9,13
2014/1/22 7:49,2.8,15,2.8,16,9.1,16
2014/1/22 7:50,2.8,15,2.9,15,9.8,16
2014/1/22 7:51,2.7,15,2.8,15,5.6,2
2014/1/22 7:52,2.7,15,2.7,15,6,2
2014/1/22 7:53,2.7,15,2.7,15,5.1,15
2014/1/22 7:54,3.1,15,3.1,15,7.5,16
2014/1/22 7:55,3.2,15,3.2,15,5.7,15
2014/1/22 7:56,3,15,3.2,15,3.9,15
2014/1/22 7:57,3,15,3,15,4.1,9
2014/1/22 7:58,3.1,15,3.1,15,3.5,8
2014/1/22 7:59,2.8,15,3.1,15,4.1,16
2014/1/22 8:00,2.5,15,2.7,15,2.7,2
2014/1/22 8:01,2.4,14,2.5,15,3,12
2014/1/22 8:02,2.3,14,2.4,15,4.1,11
2014/1/22 8:03,2.4,13,2.4,15,4.4,11
2014/1/22 8:04,2.2,13,2.4,15,4.2,1
2014/1/22 8:05,2,14,2.1,16,3,16
2014/1/22 8:06,2.1,15,2.1,16,4.8,14
2014/1/22 8:07,2,15,2.1,16,3.9,14
2014/1/22 8:08,2.1,15,2.1,15,5.2,13
2014/1/22 8:09,2.1,14,2.2,15,2.6,11
2014/1/22 8:10,2,14,2.1,15,1,5
2014/1/22 8:11,2,14,2,14,2.6,8
2014/1/22 8:12,1.9,15,1.9,13,2.5,1
2014/1/22 8:13,1.8,16,1.9,13,2.6,3
2014/1/22 8:14,1.7,1,1.8,15,2.9,3
2014/1/22 8:15,1.6,1,1.7,15,1.5,3
2014/1/22 8:16,1.4,1,1.6,15,1.9,1
2014/1/22 8:17,1.3,2,1.4,15,1.3,6
2014/1/22 8:18,1.1,2,1.3,15,0.6,8
2014/1/22 8:19,1,3,1.1,14,3.7,9
2014/1/22 8:20,1.1,2,1.1,14,3.5,9
2014/1/22 8:21,1.1,2,1.2,15,3.8,9
2014/1/22 8:22,1.2,4,1.2,15,3.5,9
2014/1/22 8:23,1.2,6,1.3,16,4.1,10
2014/1/22 8:24,1.4,7,1.4,1,4.2,9
2014/1/22 8:25,1.4,8,1.4,1,3.2,8
2014/1/22 8:26,1.5,8,1.5,8,3.9,8
2014/1/22 8:27,1.6,9,1.6,9,2,11
2014/1/22 8:28,1.6,9,1.6,9,0.5,9
2014/1/22 8:29,1.5,9,1.6,9,1.8,13
2014/1/22 8:30,1.5,9,1.5,9,1.1,14
2014/1/22 8:31,1.5,9,1.5,9,3.2,7
2014/1/22 8:32,1.5,9,1.5,9,2.1,6
2014/1/22 8:33,1.3,9,1.5,9,1.6,6
2014/1/22 8:34,1.2,9,1.3,9,2.5,9
2014/1/22 8:35,1.2,9,1.2,9,2.6,9
2014/1/22 8:36,1.1,9,1.2,9,3.3,9
2014/1/22 8:37,1.3,9,1.3,9,4.3,9
2014/1/22 8:38,1.4,9,1.4,9,3.6,10
2014/1/22 8:39,1.6,8,1.6,8,4.2,10
2014/1/22 8:40,1.8,9,1.8,8,4.5,10
2014/1/22 8:41,1.9,9,1.9,9,5.2,9
2014/1/22 8:42,2,9,2,9,5.2,9
2014/1/22 8:43,2.1,9,2.1,9,3.9,10
2014/1/22 8:44,2,9,2.1,9,1.6,10
2014/1/22 8:45,1.9,9,2,9,0.4,1
2014/1/22 8:46,1.8,9,1.9,9,1.4,3
2014/1/22 8:47,1.7,9,1.8,9,1.4,4
2014/1/22 8:48,1.5,10,1.6,9,1.8,16
2014/1/22 8:49,1.5,12,1.5,9,3,16
2014/1/22 8:50,1.5,16,1.5,9,5.7,16
2014/1/22 8:51,1.5,16,1.6,9,6.7,1
2014/1/22 8:52,1.4,16,1.5,9,2.5,12
2014/1/22 8:53,1.3,15,1.4,9,2,14
2014/1/22 8:54,1.3,16,1.3,9,1.1,14
2014/1/22 8:55,1.3,16,1.3,9,1.4,2
2014/1/22 8:56,1.4,15,1.4,9,3.8,14
2014/1/22 8:57,1.5,15,1.5,9,3.6,14
2014/1/22 8:58,1.6,15,1.6,16,2.2,1
2014/1/22 8:59,1.5,16,1.6,16,1.1,4
2014/1/22 9:00,1.2,15,1.5,16,1.1,14
2014/1/22 9:01,1,15,1.2,15,0.4,9
2014/1/22 9:02,0.9,15,1,15,1,10
2014/1/22 9:03,0.8,15,0.9,15,0.9,9
2014/1/22 9:04,0.8,15,0.8,15,2,11
2014/1/22 9:05,0.9,13,0.9,15,1.4,9
2014/1/22 9:06,0.9,11,0.9,15,1.9,9
2014/1/22 9:07,0.8,10,0.9,15,1.5,8
2014/1/22 9:08,0.8,10,0.8,15,3.2,13
2014/1/22 9:09,0.9,11,0.9,15,3.2,13
2014/1/22 9:10,1.1,10,1.1,15,2.9,11
2014/1/22 9:11,1.2,10,1.2,10,2.4,9
2014/1/22 9:12,1.2,10,1.2,10,2.2,8
2014/1/22 9:13,1.2,10,1.2,10,2.1,7
2014/1/22 9:14,1.2,10,1.2,10,1.9,10
2014/1/22 9:15,1.2,10,1.2,10,2.2,9
2014/1/22 9:16,1.2,11,1.2,10,3.2,15
2014/1/22 9:17,1.5,12,1.5,12,5.7,16
2014/1/22 9:18,1.5,12,1.6,12,4.4,3
2014/1/22 9:19,1.4,12,1.5,12,1.8,15
2014/1/22 9:20,1.3,13,1.4,12,3,14
2014/1/22 9:21,1.5,14,1.5,12,7.2,16
2014/1/22 9:22,1.8,15,1.8,15,6.9,16
2014/1/22 9:23,2.2,15,2.2,15,6.3,16
2014/1/22 9:24,2.4,16,2.4,15,4.1,16
2014/1/22 9:25,2.5,16,2.5,16,4.3,16
2014/1/22 9:26,2.7,16,2.7,16,4.2,16
2014/1/22 9:27,2.6,16,2.7,16,6.2,16
2014/1/22 9:28,2.7,15,2.7,16,6.8,15
2014/1/22 9:29,3,15,3,15,4.3,15
2014/1/22 9:30,3,16,3,15,2.7,15
2014/1/22 9:31,2.7,15,2.9,15,1,14
2014/1/22 9:32,2.3,15,2.6,15,1.5,13
2014/1/22 9:33,2,15,2.3,15,1.4,11
2014/1/22 9:34,1.8,14,1.9,15,2.5,8
2014/1/22 9:35,1.8,14,1.8,15,3,9
2014/1/22 9:36,1.7,13,1.8,15,3.1,11
2014/1/22 9:37,1.7,12,1.8,15,3.6,12
2014/1/22 9:38,1.6,11,1.7,15,3.7,9
2014/1/22 9:39,1.5,10,1.6,15,3.5,7
2014/1/22 9:40,1.5,10,1.5,16,3.9,9
2014/1/22 9:41,1.6,10,1.6,15,1.6,8
2014/1/22 9:42,1.7,10,1.7,15,3.5,15
2014/1/22 9:43,1.8,10,1.8,15,3.5,15
2014/1/22 9:44,1.8,11,1.8,14,3.1,12
2014/1/22 9:45,1.7,11,1.8,13,2.1,13
2014/1/22 9:46,1.6,11,1.7,13,2.4,10
2014/1/22 9:47,1.4,11,1.6,10,4.4,9
2014/1/22 9:48,1.4,11,1.4,10,2.1,11
2014/1/22 9:49,1.3,11,1.4,10,2.4,9
2014/1/22 9:50,1.2,12,1.3,10,1.3,12
2014/1/22 9:51,1.3,12,1.3,10,2.5,10
2014/1/22 9:52,1.3,12,1.3,10,3.1,14
2014/1/22 9:53,1.3,12,1.3,10,3,12
2014/1/22 9:54,1.3,12,1.4,11,2.7,12
2014/1/22 9:55,1.3,11,1.3,11,2.4,7
2014/1/22 9:56,1.5,12,1.5,11,4.1,16
2014/1/22 9:57,1.7,13,1.7,13,6.4,1
2014/1/22 9:58,1.7,13,1.7,13,5.4,1
2014/1/22 9:59,1.8,14,1.8,14,3.7,15
2014/1/22 10:00,1.9,14,1.9,14,3.2,15
2014/1/22 10:01,1.8,14,1.9,14,2.1,1
2014/1/22 10:02,1.8,15,1.8,14,2.7,15
2014/1/22 10:03,1.7,15,1.8,14,2.5,13
2014/1/22 10:04,1.8,15,1.8,14,3.1,13
2014/1/22 10:05,1.8,14,1.8,14,1.9,12
2014/1/22 10:06,1.6,14,1.8,14,1.4,10
2014/1/22 10:07,1.4,13,1.6,14,0.9,13
2014/1/22 10:08,1.3,13,1.4,14,2.1,15
2014/1/22 10:09,1.2,13,1.3,14,2.1,15
2014/1/22 10:10,1.2,13,1.2,14,2.2,16
2014/1/22 10:11,1.4,14,1.4,14,4.2,15
2014/1/22 10:12,1.5,13,1.5,15,4.5,15
2014/1/22 10:13,1.5,13,1.5,15,2.6,13
2014/1/22 10:14,1.4,13,1.5,15,1.1,10
2014/1/22 10:15,1.3,13,1.3,14,1.8,11
2014/1/22 10:16,1.4,13,1.4,14,3.1,1
2014/1/22 10:17,1.7,14,1.7,14,6.5,14
2014/1/22 10:18,1.9,14,1.9,14,4.8,14
2014/1/22 10:19,2,14,2,14,3.9,14
2014/1/22 10:20,2.1,14,2.1,14,3.3,16
2014/1/22 10:21,2,14,2.1,14,4.4,16
2014/1/22 10:22,2,14,2,14,4.3,15
2014/1/22 10:23,2.1,14,2.1,14,5.1,13
2014/1/22 10:24,2.4,14,2.4,14,4.5,11
2014/1/22 10:25,2.4,14,2.4,14,4.9,11
2014/1/22 10:26,2.3,14,2.4,14,1.5,8
2014/1/22 10:27,2.1,14,2.3,14,2.5,8
2014/1/22 10:28,2,13,2.1,14,1.6,9
2014/1/22 10:29,1.9,12,2,14,2,10
2014/1/22 10:30,1.7,10,1.8,14,0.9,7
2014/1/22 10:31,1.6,10,1.7,14,0.9,2
2014/1/22 10:32,1.4,9,1.5,14,2,4
2014/1/22 10:33,1.2,9,1.4,14,1.6,14
2014/1/22 10:34,0.9,9,1.2,14,1.6,1
2014/1/22 10:35,0.9,8,0.9,14,5.2,3
2014/1/22 10:36,1.2,8,1.2,14,5.2,3
2014/1/22 10:37,1.4,5,1.4,14,4.9,16
2014/1/22 10:38,1.4,2,1.4,13,1.5,16
2014/1/22 10:39,1.4,16,1.4,11,4.1,15
2014/1/22 10:40,1.7,16,1.7,10,5.2,15
2014/1/22 10:41,2,15,2,16,6.5,15
2014/1/22 10:42,2.2,15,2.2,15,4.5,13
2014/1/22 10:43,2.5,16,2.5,15,7,16
2014/1/22 10:44,2.7,16,2.7,16,3.5,16
2014/1/22 10:45,2.9,16,2.9,16,7.2,1
2014/1/22 10:46,2.8,16,2.9,16,6.1,1
2014/1/22 10:47,2.9,16,2.9,16,6,1
2014/1/22 10:48,3.3,16,3.3,16,9.2,16
2014/1/22 10:49,3.9,16,3.9,16,9.9,15
2014/1/22 10:50,3.9,16,4,16,6.7,15
2014/1/22 10:51,3.8,16,3.9,16,3.7,11
2014/1/22 10:52,3.6,16,3.7,16,5,11
2014/1/22 10:53,3.4,15,3.6,16,3.6,10
2014/1/22 10:54,3.5,14,3.5,16,4.5,10
2014/1/22 10:55,3.4,14,3.6,16,3.2,12
2014/1/22 10:56,3.3,13,3.3,16,2.7,11
2014/1/22 10:57,3.1,13,3.2,16,2.4,14
2014/1/22 10:58,2.7,13,3.1,16,1.8,13
2014/1/22 10:59,2.1,12,2.6,16,3.2,13
2014/1/22 11:00,1.8,12,2.1,16,2.7,12
2014/1/22 11:01,1.8,12,1.8,16,2.9,9
2014/1/22 11:02,1.8,12,1.8,16,2.7,9
2014/1/22 11:03,1.8,12,1.8,14,3.2,9
2014/1/22 11:04,1.6,12,1.8,14,2.9,9
2014/1/22 11:05,1.6,11,1.6,13,3.1,9
2014/1/22 11:06,1.6,11,1.6,13,3.5,10
2014/1/22 11:07,1.6,11,1.6,13,4.3,9
2014/1/22 11:08,1.7,10,1.7,13,3.8,8
2014/1/22 11:09,1.6,10,1.7,12,2.5,9
2014/1/22 11:10,1.6,10,1.6,12,2.5,9
2014/1/22 11:11,1.6,10,1.6,12,2.2,10
2014/1/22 11:12,1.6,10,1.6,12,1.8,10
2014/1/22 11:13,1.6,10,1.6,12,4.2,15
2014/1/22 11:14,1.6,11,1.6,11,3,2
2014/1/22 11:15,1.7,11,1.7,11,4.5,16